Weather History for Arctic Village, AK

Change the Weather History Date:

Monday, December 2, 2013

  Actual Average Record
Temperature  
Mean Temperature -19 °F -  
Max Temperature -11 °F -11 °F 25 °F (1987)
Min Temperature -27 °F -32 °F -55 °F (1970)
Degree Days  
Heating Degree Days 84    
Moisture  
Dew Point -25 °F    
Average Humidity 70    
Maximum Humidity 100    
Minimum Humidity 48    
Precipitation  
Precipitation 0.00 in - - ()
Sea Level Pressure  
Sea Level Pressure 30.52 in    
Wind  
Wind Speed - (North)    
Max Wind Speed -    
Max Gust Speed -    
Visibility 10 miles    
Events      
Averages and records for this station are not official NWS values.
T = Trace of Precipitation, MM = Missing Value Source: NWS Daily Summary

Daily Weather History Graph

Daily Weather History Graph

Search for Another Location

Airport:

Trip Planner

Search our weather history database for the weather conditions in past years. The results will help you decide how hot, cold, wet, or windy it might be!

Date:

Astronomy

Dec. 02, 2013 Rise Set
Actual Time 11:32 AM AKST 1:30 PM AKST
Civil Twilight 9:31 AM AKST 3:31 PM AKST
Nautical Twilight 8:07 AM AKST 4:55 PM AKST
Astronomical Twilight 6:57 AM AKST 6:05 PM AKST
Moon 10:21 AM AKST (12/2) 2:26 PM AKST (12/2)
Length of Visible Light 6h 00m
Length of Day
1h 57m
Waning Crescent, 0% of the Moon is Illuminated
Dec 2
Waning Crescent
Dec 2
New
Dec 9
First Quarter
Dec 17
Full
Dec 25
Last Quarter

Hourly Weather History & Observations

Time (AKST) Temp. Dew Point Humidity Pressure Visibility Wind Dir Wind Speed Gust Speed Precip Events Conditions
12:16 AM -27.4 °F - N/A% 30.47 in 10.0 mi North - - N/A   Clear
12:36 AM -27.4 °F - N/A% 30.48 in 9.0 mi North - - N/A   Clear
12:56 AM -27.4 °F - N/A% 30.48 in 10.0 mi North - - N/A   Clear
1:16 AM -25.6 °F - N/A% 30.48 in 10.0 mi North - - N/A   Clear
1:36 AM -25.6 °F - N/A% 30.48 in 10.0 mi North - - N/A   Clear
1:56 AM -27.4 °F - N/A% 30.50 in 9.0 mi North - - N/A   Clear
2:16 AM -27.4 °F - N/A% 30.50 in 9.0 mi North - - N/A   Clear
2:36 AM -27.4 °F -27.4 °F 100% 30.49 in 10.0 mi North - - N/A   Clear
2:56 AM -25.6 °F - N/A% 30.49 in 10.0 mi North - - N/A   Clear
3:16 AM -25.6 °F - N/A% 30.50 in 10.0 mi North - - N/A   Clear
3:36 AM -25.6 °F -27.4 °F 91% 30.50 in 10.0 mi North - - N/A   Clear
3:56 AM -25.6 °F - N/A% 30.50 in 10.0 mi North - - N/A   Clear
4:16 AM -25.6 °F - N/A% 30.51 in 10.0 mi North - - N/A   Clear
4:36 AM -25.6 °F - N/A% 30.52 in 10.0 mi North - - N/A   Clear
4:56 AM -25.6 °F - N/A% 30.51 in 9.0 mi North - - N/A   Clear
5:16 AM -25.6 °F - N/A% 30.51 in 10.0 mi North - - N/A   Clear
5:36 AM -25.6 °F - N/A% 30.52 in 10.0 mi North - - N/A   Clear
5:56 AM -25.6 °F - N/A% 30.52 in 10.0 mi North - - N/A   Clear
6:16 AM -23.8 °F - N/A% 30.52 in 10.0 mi North - - N/A   Clear
6:36 AM -25.6 °F - N/A% 30.52 in 10.0 mi North - - N/A   Clear
6:56 AM -25.6 °F - N/A% 30.52 in 10.0 mi North - - N/A   Clear
7:16 AM -25.6 °F - N/A% 30.53 in 10.0 mi North - - N/A   Clear
7:36 AM -23.8 °F - N/A% 30.53 in 10.0 mi North - - N/A   Clear
7:56 AM -25.6 °F - N/A% 30.53 in 10.0 mi North - - N/A   Clear
8:16 AM -23.8 °F - N/A% 30.53 in 10.0 mi North - - N/A   Clear
8:36 AM -23.8 °F - N/A% 30.53 in 10.0 mi North - - N/A   Clear
8:56 AM -23.8 °F - N/A% 30.53 in 10.0 mi North - - N/A   Clear
9:16 AM -22.0 °F - N/A% 30.54 in 10.0 mi North - - N/A   Clear
9:36 AM -22.0 °F - N/A% 30.54 in 10.0 mi North - - N/A   Clear
9:56 AM -22.0 °F - N/A% 30.55 in 10.0 mi North - - N/A   Clear
10:16 AM -20.2 °F - N/A% 30.55 in 10.0 mi North - - N/A   Clear
10:36 AM -20.2 °F - N/A% 30.55 in 10.0 mi North - - N/A   Clear
10:56 AM -20.2 °F - N/A% 30.56 in 10.0 mi North - - N/A   Clear
11:16 AM -20.2 °F - N/A% 30.56 in 10.0 mi North - - N/A   Clear
11:36 AM -20.2 °F -29.2 °F 63% 30.55 in 10.0 mi North - - N/A   Clear
11:56 AM -20.2 °F - N/A% 30.55 in 10.0 mi North - - N/A   Clear
12:16 PM -20.2 °F -29.2 °F 63% 30.54 in 8.0 mi North - - N/A   Clear
12:36 PM -20.2 °F -27.4 °F 69% 30.54 in 8.0 mi North - - N/A   Clear
12:56 PM -20.2 °F - N/A% 30.55 in 9.0 mi North - - N/A   Clear
1:16 PM -20.2 °F -25.6 °F 76% 30.55 in 10.0 mi North - - N/A   Clear
1:36 PM -20.2 °F - N/A% 30.55 in 10.0 mi North - - N/A   Clear
1:56 PM -20.2 °F -20.2 °F 100% 30.55 in 10.0 mi North - - N/A   Clear
2:16 PM -20.2 °F - N/A% 30.55 in 10.0 mi North - - N/A   Clear
2:36 PM -20.2 °F -22.0 °F 91% 30.54 in 10.0 mi North - - N/A   Clear
2:56 PM -18.4 °F - N/A% 30.54 in 10.0 mi North - - N/A   Clear
3:16 PM -18.4 °F - N/A% 30.54 in 10.0 mi North - - N/A   Clear
3:36 PM -18.4 °F - N/A% 30.54 in 5.0 mi North - - N/A   Clear
3:56 PM -18.4 °F - N/A% 30.53 in 10.0 mi North - - N/A   Clear
4:16 PM -16.6 °F - N/A% 30.53 in 10.0 mi North - - N/A   Clear
4:36 PM -16.6 °F - N/A% 30.54 in 10.0 mi North - - N/A   Clear
4:56 PM -16.6 °F - N/A% 30.53 in 10.0 mi North - - N/A   Clear
5:16 PM -16.6 °F - N/A% 30.53 in 10.0 mi North - - N/A   Clear
5:36 PM -14.8 °F - N/A% 30.53 in 10.0 mi North - - N/A   Clear
5:56 PM -14.8 °F - N/A% 30.52 in 10.0 mi North - - N/A   Clear
6:16 PM -14.8 °F -29.2 °F 48% 30.52 in 10.0 mi North - - N/A   Clear
6:36 PM -14.8 °F -29.2 °F 48% 30.52 in 10.0 mi North - - N/A   Clear
6:56 PM -14.8 °F -25.6 °F 58% 30.52 in 10.0 mi North - - N/A   Clear
7:16 PM -14.8 °F -20.2 °F 77% 30.52 in 10.0 mi North - - N/A   Clear
7:36 PM -14.8 °F -23.8 °F 64% 30.52 in 10.0 mi North - - N/A   Clear
7:56 PM -14.8 °F -18.4 °F 84% 30.52 in 10.0 mi North - - N/A   Clear
8:16 PM -13.0 °F -23.8 °F 59% 30.52 in 10.0 mi North - - N/A   Clear
8:36 PM -11.2 °F - N/A% 30.54 in 10.0 mi North - - N/A   Clear
8:56 PM -11.2 °F - N/A% 30.53 in 10.0 mi North - - N/A   Clear
9:16 PM -13.0 °F - N/A% 30.52 in 10.0 mi North - - N/A   Scattered Clouds
9:36 PM -13.0 °F - N/A% 30.52 in 10.0 mi North - - N/A   Partly Cloudy
9:56 PM -14.8 °F - N/A% 30.52 in 10.0 mi North - - N/A   Clear
10:16 PM -14.8 °F - N/A% 30.53 in 10.0 mi North - - N/A   Clear
10:36 PM -14.8 °F - N/A% 30.51 in 10.0 mi North - - N/A   Mostly Cloudy
10:56 PM -14.8 °F -27.4 °F 53% 30.51 in 10.0 mi North - - N/A   Overcast
11:16 PM -14.8 °F -27.4 °F 53% 30.51 in 10.0 mi North - - N/A   Mostly Cloudy
11:36 PM -13.0 °F -18.4 °F 77% 30.52 in 10.0 mi North - - N/A   Mostly Cloudy
11:56 PM -14.8 °F -27.4 °F 53% 30.51 in 10.0 mi North - - N/A   Partly Cloudy